| time (UTC) | temp F | wind direction | speed knots | gust knots | rain 1hr in | rain 24hr in | rain mn in | humidity % | barometer mb |
| 20260504110608 | 48 | 271 | 1.7 | 4.3 | 0.00 | 0.00 | 0.00 | 57 | 1018.0 |
| 20260504110107 | 47 | 271 | 2.6 | 4.3 | 0.00 | 0.00 | 0.00 | 57 | 1017.8 |
| 20260504100600 | 45 | 175 | 2.6 | 6.1 | 0.00 | 0.00 | 0.00 | 60 | 1017.4 |
| 20260504081541 | 45 | 173 | 0.0 | 1.7 | 0.00 | 0.00 | 0.00 | 59 | 1018.1 |
| 20260504081039 | 45 | 173 | 0.0 | 1.7 | 0.00 | 0.00 | 0.00 | 59 | 1018.1 |
| 20260504080538 | 45 | 173 | 0.0 | 0.0 | 0.00 | 0.00 | 0.00 | 57 | 1018.1 |
| 20260504050510 | 50 | 244 | 1.7 | 5.2 | 0.00 | 0.00 | 0.00 | 50 | 1017.8 |
| 20260504050012 | 50 | 244 | 1.7 | 5.2 | 0.00 | 0.00 | 0.00 | 49 | 1017.7 |
| 20260504045510 | 50 | 196 | 1.7 | 4.3 | 0.00 | 0.00 | 0.00 | 48 | 1017.7 |
| 20260504045012 | 50 | 202 | 1.7 | 5.2 | 0.00 | 0.00 | 0.00 | 49 | 1017.7 |
| 20260504044511 | 50 | 209 | 1.7 | 5.2 | 0.00 | 0.00 | 0.00 | 48 | 1017.7 |
| 20260504044242 | 50 | 182 | 1.7 | 3.5 | 0.00 | 0.00 | 0.00 | 48 | 1017.6 |
| 20260504043510 | 50 | 182 | 1.7 | 3.5 | 0.00 | 0.00 | 0.00 | 49 | 1017.6 |
| 20260504043011 | 50 | 182 | 1.7 | 5.2 | 0.00 | 0.00 | 0.00 | 48 | 1017.6 |
| 20260504042512 | 50 | 175 | 0.9 | 5.2 | 0.00 | 0.00 | 0.00 | 48 | 1017.5 |
| 20260504042012 | 50 | 200 | 1.7 | 4.3 | 0.00 | 0.00 | 0.00 | 48 | 1017.4 |
| 20260504041743 | 50 | 200 | 1.7 | 4.3 | 0.00 | 0.00 | 0.00 | 47 | 1017.3 |
| 20260504041009 | 50 | 188 | 1.7 | 5.2 | 0.00 | 0.00 | 0.00 | 47 | 1017.4 |
| 20260504040507 | 50 | 189 | 1.7 | 5.2 | 0.00 | 0.00 | 0.00 | 48 | 1017.4 |
| 20260504040007 | 50 | 169 | 1.7 | 5.2 | 0.00 | 0.00 | 0.00 | 47 | 1017.3 |
| 20260504035508 | 51 | 169 | 1.7 | 5.2 | 0.00 | 0.00 | 0.00 | 47 | 1017.3 |
| 20260504035002 | 51 | 132 | 1.7 | 6.1 | 0.00 | 0.00 | 0.00 | 47 | 1017.3 |
| 20260504034502 | 51 | 132 | 1.7 | 6.1 | 0.00 | 0.00 | 0.00 | 47 | 1017.3 |
| 20260504034001 | 50 | 188 | 1.7 | 5.2 | 0.00 | 0.00 | 0.00 | 47 | 1017.2 |
| 20260504033731 | 50 | 69 | 1.7 | 5.2 | 0.00 | 0.00 | 0.00 | 47 | 1017.2 |
| 20260504033007 | 51 | 206 | 1.7 | 4.3 | 0.00 | 0.00 | 0.00 | 47 | 1017.2 |
| 20260504032502 | 51 | 171 | 1.7 | 4.3 | 0.00 | 0.00 | 0.00 | 46 | 1017.2 |
| 20260504032001 | 50 | 213 | 1.7 | 4.3 | 0.00 | 0.00 | 0.00 | 47 | 1017.2 |
| 20260504031502 | 50 | 197 | 1.7 | 4.3 | 0.00 | 0.00 | 0.00 | 47 | 1017.2 |
| 20260504031002 | 50 | 300 | 0.9 | 5.2 | 0.00 | 0.00 | 0.00 | 48 | 1017.2 |
| 20260504030500 | 50 | 327 | 0.9 | 5.2 | 0.00 | 0.00 | 0.00 | 47 | 1017.2 |
| 20260504025959 | 50 | 226 | 0.9 | 3.5 | 0.00 | 0.00 | 0.00 | 47 | 1017.2 |
| 20260504025500 | 50 | 227 | 0.9 | 3.5 | 0.00 | 0.00 | 0.00 | 48 | 1017.3 |
| 20260504024958 | 51 | 226 | 0.9 | 2.6 | 0.00 | 0.00 | 0.00 | 46 | 1017.3 |
| 20260504024728 | 51 | 226 | 0.0 | 1.7 | 0.00 | 0.00 | 0.00 | 46 | 1017.3 |
| 20260504023956 | 51 | 226 | 0.9 | 3.5 | 0.00 | 0.00 | 0.00 | 45 | 1017.2 |
| 20260504023456 | 51 | 226 | 0.9 | 3.5 | 0.00 | 0.00 | 0.00 | 45 | 1017.3 |
| 20260504022956 | 51 | 226 | 0.9 | 3.5 | 0.00 | 0.00 | 0.00 | 46 | 1017.3 |
| 20260504022455 | 51 | 226 | 0.9 | 2.6 | 0.00 | 0.00 | 0.00 | 45 | 1017.2 |
| 20260504021956 | 51 | 226 | 0.9 | 2.6 | 0.00 | 0.00 | 0.00 | 44 | 1017.2 |
| 20260504021455 | 52 | 226 | 0.9 | 3.5 | 0.00 | 0.00 | 0.00 | 43 | 1017.2 |
| 20260504020950 | 52 | 226 | 0.9 | 3.5 | 0.00 | 0.00 | 0.00 | 44 | 1017.2 |
| 20260504020451 | 52 | 226 | 0.9 | 3.5 | 0.00 | 0.00 | 0.00 | 44 | 1017.3 |
| 20260504020349 | 52 | 226 | 0.9 | 3.5 | 0.00 | 0.00 | 0.00 | 43 | 1017.3 |
| 20260504020241 | 52 | 226 | 0.9 | 3.5 | 0.00 | 0.00 | 0.00 | 43 | 1017.3 |
| 20260504015219 | 52 | 226 | 0.9 | 2.6 | 0.00 | 0.00 | 0.00 | 43 | 1017.2 |
| 20260504014450 | 52 | 226 | 0.9 | 2.6 | 0.00 | 0.00 | 0.00 | 44 | 1017.1 |
| 20260504013950 | 52 | 226 | 0.9 | 4.3 | 0.00 | 0.00 | 0.00 | 44 | 1017.1 |
| 20260504013450 | 52 | 226 | 0.9 | 4.3 | 0.00 | 0.00 | 0.00 | 43 | 1017.1 |
| 20260504012948 | 52 | 226 | 0.0 | 2.6 | 0.00 | 0.00 | 0.00 | 44 | 1016.9 |
| 20260504012450 | 52 | 226 | 0.0 | 2.6 | 0.00 | 0.00 | 0.00 | 44 | 1016.8 |
| 20260504011957 | 53 | 226 | 0.9 | 4.3 | 0.00 | 0.00 | 0.00 | 43 | 1016.7 |
| 20260504011951 | 52 | 226 | 0.0 | 2.6 | 0.00 | 0.00 | 0.00 | 43 | 1016.8 |
| 20260504011220 | 53 | 226 | 1.7 | 4.3 | 0.00 | 0.00 | 0.00 | 43 | 1016.6 |
| 20260504011121 | 53 | 226 | 1.7 | 4.3 | 0.00 | 0.00 | 0.00 | 41 | 1016.6 |
| 20260504005946 | 53 | 226 | 1.7 | 4.3 | 0.00 | 0.00 | 0.00 | 41 | 1016.5 |
| 20260504005444 | 53 | 226 | 0.9 | 4.3 | 0.00 | 0.00 | 0.00 | 41 | 1016.6 |
| 20260504004945 | 53 | 226 | 0.9 | 4.3 | 0.00 | 0.00 | 0.00 | 42 | 1016.5 |
| 20260504004446 | 53 | 226 | 1.7 | 4.3 | 0.00 | 0.00 | 0.00 | 42 | 1016.6 |
| 20260504003944 | 53 | 227 | 0.9 | 4.3 | 0.00 | 0.00 | 0.00 | 41 | 1016.5 |
| 20260504003445 | 53 | 227 | 0.9 | 4.3 | 0.00 | 0.00 | 0.00 | 41 | 1016.5 |
| 20260504002943 | 54 | 227 | 0.9 | 3.5 | 0.00 | 0.00 | 0.00 | 43 | 1016.4 |
| 20260504002442 | 54 | 227 | 1.7 | 4.3 | 0.00 | 0.00 | 0.00 | 42 | 1016.3 |
| 20260504001940 | 55 | 227 | 1.7 | 5.2 | 0.00 | 0.00 | 0.00 | 40 | 1016.2 |
| 20260504001440 | 55 | 227 | 1.7 | 5.2 | 0.00 | 0.00 | 0.00 | 40 | 1016.2 |
| 20260504001207 | 55 | 227 | 0.9 | 4.3 | 0.00 | 0.00 | 0.00 | 40 | 1016.1 |
| 20260504000436 | 55 | 227 | 0.9 | 2.6 | 0.00 | 0.00 | 0.00 | 39 | 1016.1 |
| 20260503235934 | 55 | 227 | 0.9 | 3.5 | 0.00 | 0.00 | 0.00 | 39 | 1016.1 |
| 20260503235438 | 56 | 227 | 0.9 | 3.5 | 0.00 | 0.00 | 0.00 | 38 | 1016.0 |
| 20260503234935 | 56 | 227 | 0.9 | 3.5 | 0.00 | 0.00 | 0.00 | 41 | 1016.0 |
| 20260503234433 | 56 | 227 | 0.9 | 2.6 | 0.00 | 0.00 | 0.00 | 39 | 1015.9 |
| 20260503233933 | 56 | 227 | 0.9 | 2.6 | 0.00 | 0.00 | 0.00 | 39 | 1015.9 |
| 20260503233433 | 56 | 227 | 0.0 | 2.6 | 0.00 | 0.00 | 0.00 | 40 | 1015.9 |
| 20260503233205 | 56 | 227 | 0.0 | 1.7 | 0.00 | 0.00 | 0.00 | 39 | 1015.9 |
| 20260503232433 | 56 | 227 | 0.0 | 1.7 | 0.00 | 0.00 | 0.00 | 39 | 1015.8 |
| 20260503231932 | 56 | 227 | 0.9 | 5.2 | 0.00 | 0.00 | 0.00 | 40 | 1015.9 |
| 20260503231432 | 56 | 227 | 1.7 | 5.2 | 0.00 | 0.00 | 0.00 | 39 | 1015.8 |
| 20260503230932 | 56 | 213 | 1.7 | 5.2 | 0.00 | 0.00 | 0.00 | 39 | 1015.9 |
| 20260503230432 | 56 | 42 | 1.7 | 7.0 | 0.00 | 0.00 | 0.00 | 38 | 1015.9 |
| 20260503225931 | 56 | 211 | 2.6 | 8.7 | 0.00 | 0.00 | 0.00 | 39 | 1015.8 |
| 20260503225426 | 56 | 159 | 1.7 | 8.7 | 0.00 | 0.00 | 0.00 | 38 | 1015.7 |
| 20260503224926 | 57 | 193 | 1.7 | 6.1 | 0.00 | 0.00 | 0.00 | 38 | 1015.8 |
| 20260503224425 | 57 | 32 | 2.6 | 9.6 | 0.00 | 0.00 | 0.00 | 37 | 1015.8 |
| 20260503223923 | 57 | 28 | 3.5 | 9.6 | 0.00 | 0.00 | 0.00 | 38 | 1015.8 |
| 20260503223424 | 57 | 42 | 2.6 | 7.8 | 0.00 | 0.00 | 0.00 | 38 | 1015.7 |
| 20260503222923 | 57 | 34 | 1.7 | 7.0 | 0.00 | 0.00 | 0.00 | 38 | 1015.8 |
| 20260503222817 | 57 | 50 | 1.7 | 7.8 | 0.00 | 0.00 | 0.00 | 38 | 1015.7 |
| 20260503222707 | 57 | 305 | 2.6 | 7.8 | 0.00 | 0.00 | 0.00 | 37 | 1015.8 |
| 20260503221654 | 58 | 69 | 1.7 | 7.8 | 0.00 | 0.00 | 0.00 | 37 | 1015.7 |
| 20260503221152 | 57 | 5 | 2.6 | 7.8 | 0.00 | 0.00 | 0.00 | 37 | 1015.7 |
| 20260503220422 | 57 | 39 | 2.6 | 6.1 | 0.00 | 0.00 | 0.00 | 39 | 1015.7 |
| 20260503215922 | 57 | 63 | 2.6 | 6.1 | 0.00 | 0.00 | 0.00 | 38 | 1015.9 |
| 20260503215425 | 57 | 298 | 3.5 | 7.0 | 0.00 | 0.00 | 0.00 | 37 | 1015.8 |
| 20260503214920 | 57 | 22 | 4.3 | 7.8 | 0.00 | 0.00 | 0.00 | 37 | 1015.8 |
| 20260503214420 | 57 | 38 | 4.3 | 7.8 | 0.00 | 0.00 | 0.00 | 37 | 1015.8 |
| 20260503213920 | 58 | 26 | 3.5 | 7.8 | 0.00 | 0.00 | 0.00 | 38 | 1015.7 |
| 20260503213413 | 57 | 36 | 3.5 | 7.8 | 0.00 | 0.00 | 0.00 | 37 | 1015.7 |
| 20260503212911 | 57 | 31 | 5.2 | 9.6 | 0.00 | 0.00 | 0.00 | 39 | 1015.6 |
| 20260503212409 | 57 | 49 | 5.2 | 9.6 | 0.00 | 0.00 | 0.00 | 37 | 1015.6 |
| 20260503211911 | 58 | 331 | 4.3 | 9.6 | 0.00 | 0.00 | 0.00 | 36 | 1015.5 |
| 20260503211408 | 58 | 18 | 4.3 | 9.6 | 0.00 | 0.00 | 0.00 | 37 | 1015.6 |
| 20260503211140 | 57 | 53 | 5.2 | 11.3 | 0.00 | 0.00 | 0.00 | 36 | 1015.5 |
| 20260503210409 | 57 | 45 | 6.1 | 13.9 | 0.00 | 0.00 | 0.00 | 36 | 1015.6 |
| 20260503205908 | 57 | 34 | 6.1 | 13.9 | 0.00 | 0.00 | 0.00 | 36 | 1015.5 |
| 20260503205409 | 57 | 56 | 6.1 | 12.2 | 0.00 | 0.00 | 0.00 | 36 | 1015.4 |
| 20260503204909 | 56 | 24 | 3.5 | 10.4 | 0.00 | 0.00 | 0.00 | 38 | 1015.4 |
| 20260503204410 | 57 | 34 | 3.5 | 9.6 | 0.00 | 0.00 | 0.00 | 37 | 1015.5 |
| 20260503203914 | 57 | 96 | 4.3 | 11.3 | 0.00 | 0.00 | 0.00 | 36 | 1015.4 |
| 20260503203910 | 57 | 34 | 5.2 | 11.3 | 0.00 | 0.00 | 0.00 | 36 | 1015.5 |
| 20260503202909 | 57 | 32 | 4.3 | 10.4 | 0.00 | 0.00 | 0.00 | 35 | 1015.5 |
| 20260503202410 | 57 | 30 | 3.5 | 10.4 | 0.00 | 0.00 | 0.00 | 34 | 1015.4 |
| 20260503202145 | 58 | 40 | 4.3 | 11.3 | 0.00 | 0.00 | 0.00 | 34 | 1015.5 |
| 20260503201909 | 58 | 293 | 3.5 | 11.3 | 0.00 | 0.00 | 0.00 | 34 | 1015.5 |
| 20260503200908 | 57 | 331 | 4.3 | 11.3 | 0.00 | 0.00 | 0.00 | 33 | 1015.4 |
| 20260503200409 | 57 | 0 | 4.3 | 12.2 | 0.00 | 0.00 | 0.00 | 34 | 1015.6 |
| 20260503195911 | 57 | 136 | 5.2 | 13.0 | 0.00 | 0.00 | 0.00 | 34 | 1015.6 |
| 20260503195406 | 57 | 22 | 3.5 | 13.0 | 0.00 | 0.00 | 0.00 | 33 | 1015.6 |
| 20260503194900 | 57 | 355 | 4.3 | 9.6 | 0.00 | 0.00 | 0.00 | 35 | 1015.8 |
| 20260503194623 | 57 | 22 | 5.2 | 9.6 | 0.00 | 0.00 | 0.00 | 34 | 1015.9 |
| 20260503194123 | 56 | 355 | 6.1 | 12.2 | 0.00 | 0.00 | 0.00 | 36 | 1015.8 |
| 20260503193354 | 56 | 5 | 6.1 | 12.2 | 0.00 | 0.00 | 0.00 | 34 | 1015.9 |
| 20260503192854 | 55 | 49 | 6.1 | 12.2 | 0.00 | 0.00 | 0.00 | 35 | 1015.9 |
| 20260503192624 | 56 | 328 | 6.1 | 10.4 | 0.00 | 0.00 | 0.00 | 34 | 1016.0 |
| 20260503191851 | 56 | 32 | 6.1 | 11.3 | 0.00 | 0.00 | 0.00 | 36 | 1016.1 |
| 20260503191356 | 57 | 40 | 5.2 | 16.5 | 0.00 | 0.00 | 0.00 | 36 | 1016.2 |
| 20260503191350 | 56 | 26 | 6.1 | 16.5 | 0.00 | 0.00 | 0.00 | 33 | 1016.2 |
| 20260503190352 | 57 | 13 | 5.2 | 13.9 | 0.00 | 0.00 | 0.00 | 34 | 1016.3 |
| 20260503185852 | 56 | 9 | 6.1 | 13.9 | 0.00 | 0.00 | 0.00 | 34 | 1016.3 |
| 20260503185622 | 56 | 347 | 6.1 | 13.9 | 0.00 | 0.00 | 0.00 | 36 | 1016.5 |
| 20260503184851 | 55 | 355 | 4.3 | 8.7 | 0.00 | 0.00 | 0.00 | 39 | 1016.7 |
| 20260503184353 | 55 | 0 | 3.5 | 8.7 | 0.00 | 0.00 | 0.00 | 37 | 1016.7 |
| 20260503184119 | 56 | 342 | 3.5 | 8.7 | 0.00 | 0.00 | 0.00 | 36 | 1016.7 |
| 20260503183350 | 55 | 115 | 3.5 | 7.0 | 0.00 | 0.00 | 0.00 | 38 | 1016.9 |
| 20260503182850 | 55 | 351 | 3.5 | 8.7 | 0.00 | 0.00 | 0.00 | 37 | 1017.1 |
| 20260503182349 | 54 | 65 | 4.3 | 8.7 | 0.00 | 0.00 | 0.00 | 38 | 1017.1 |
| 20260503181849 | 53 | 32 | 5.2 | 12.2 | 0.00 | 0.00 | 0.00 | 39 | 1017.1 |
| 20260503181619 | 53 | 346 | 5.2 | 12.2 | 0.00 | 0.00 | 0.00 | 39 | 1017.1 |
| 20260503180848 | 53 | 10 | 4.3 | 9.6 | 0.00 | 0.00 | 0.00 | 39 | 1017.2 |
| 20260503180348 | 54 | 30 | 5.2 | 9.6 | 0.00 | 0.00 | 0.00 | 42 | 1017.2 |
| 20260503180120 | 53 | 41 | 7.0 | 15.6 | 0.00 | 0.00 | 0.00 | 42 | 1017.2 |
| 20260503175618 | 52 | 331 | 7.0 | 15.6 | 0.00 | 0.00 | 0.00 | 40 | 1017.2 |
| 20260503174846 | 53 | 355 | 6.1 | 13.0 | 0.00 | 0.00 | 0.00 | 38 | 1017.4 |
| 20260503174347 | 53 | 322 | 5.2 | 13.0 | 0.00 | 0.00 | 0.00 | 39 | 1017.5 |
| 20260503173847 | 53 | 30 | 6.1 | 13.0 | 0.00 | 0.00 | 0.00 | 38 | 1017.4 |
| 20260503173348 | 53 | 18 | 6.1 | 13.0 | 0.00 | 0.00 | 0.00 | 38 | 1017.4 |
| 20260503172847 | 53 | 49 | 6.1 | 16.5 | 0.00 | 0.00 | 0.00 | 36 | 1017.6 |
| 20260503172347 | 53 | 80 | 6.1 | 16.5 | 0.00 | 0.00 | 0.00 | 40 | 1017.5 |
| 20260503171840 | 52 | 29 | 6.1 | 12.2 | 0.00 | 0.00 | 0.00 | 39 | 1017.7 |
| 20260503171342 | 52 | 5 | 7.0 | 13.0 | 0.00 | 0.00 | 0.00 | 42 | 1017.7 |
| 20260503170841 | 52 | 24 | 6.1 | 13.0 | 0.00 | 0.00 | 0.00 | 41 | 1017.7 |
| 20260503170611 | 52 | 34 | 4.3 | 12.2 | 0.00 | 0.00 | 0.00 | 39 | 1017.7 |
| 20260503150835 | 47 | 332 | 5.2 | 9.6 | 0.00 | 0.00 | 0.00 | 46 | 1018.4 |
| 20260503150335 | 47 | 20 | 6.1 | 10.4 | 0.00 | 0.00 | 0.00 | 45 | 1018.3 |
| 20260503131320 | 45 | 49 | 6.1 | 9.6 | 0.00 | 0.00 | 0.00 | 60 | 1018.7 |
| 20260503131049 | 44 | 51 | 6.1 | 9.6 | 0.00 | 0.00 | 0.00 | 62 | 1018.8 |
| 20260503130941 | 44 | 38 | 6.1 | 10.4 | 0.00 | 0.00 | 0.00 | 60 | 1018.9 |